This demonstration page uses our WeatherBlox Daily Observations layout. Learn more.

Left ArrowRight Arrow

40.92945, -100.16068

Hourly Observations for September 30, 2019

Temp ( °F °C ) Dew Point ( °F °C ) Humidity (%) Winds ( mph kmh ) Pressure ( in mb ) Visibility ( mi km ) Precip ( " mm )
12:15 am 00:15 Clear 76 24.6 67 19.7 74 74 S 22 35 29.60 1003 10 16 0.00 0.00
12:35 am 00:35 Clear 76 24.5 67 19.6 74 74 S 22 35 29.62 1003 10 16 0.00 0.00
12:55 am 00:55 Clear 75 24.1 67 19.6 76 76 S 21 33 29.62 1003 10 16 0.00 0.00
1:15 am 01:15 Clear 75 24.1 67 19.6 76 76 S 18 30 29.63 1003 10 16 0.00 0.00
1:35 am 01:35 Clear 75 24 67 19.6 76 76 SSE 16 26 29.63 1003 10 16 0.00 0.00
1:55 am 01:55 Clear 75 23.7 67 19.5 77 77 SSE 16 26 29.63 1003 10 16 0.00 0.00
2:15 am 02:15 Clear 74 23.6 67 19.4 77 77 SSE 16 26 29.63 1003 10 16 0.00 0.00
2:35 am 02:35 Clear 74 23.3 67 19.2 78 78 SSE 15 24 29.65 1004 10 16 0.00 0.00
2:55 am 02:55 Clear 74 23.2 66 19.1 78 78 SSE 16 26 29.64 1004 10 16 0.00 0.00
3:15 am 03:15 Clear 74 23.1 66 19 78 78 SSE 17 28 29.63 1003 10 16 0.00 0.00
3:35 am 03:35 Clear 73 23 66 19 78 78 SSE 18 30 29.63 1003 10 16 0.00 0.00
3:55 am 03:55 Clear 73 22.9 66 18.8 78 78 SSE 14 22 29.62 1003 10 16 0.00 0.00
4:15 am 04:15 Clear 73 22.5 66 18.7 79 79 SSE 15 24 29.62 1003 10 16 0.00 0.00
4:35 am 04:35 Clear 72 22 66 18.7 82 82 SSE 14 22 29.63 1003 10 16 0.00 0.00
4:55 am 04:55 Clear 71 21.7 65 18.6 83 83 SSE 9 15 29.63 1003 10 16 0.00 0.00
5:15 am 05:15 Clear 71 21.5 65 18.6 84 84 S 9 15 29.64 1004 10 16 0.00 0.00
5:35 am 05:35 Clear 71 21.5 65 18.6 84 84 S 13 20 29.63 1003 10 16 0.00 0.00
5:55 am 05:55 Clear 71 21.5 66 18.7 84 84 SSE 10 17 29.63 1003 10 16 0.00 0.00
6:15 am 06:15 Clear 70 21.1 66 18.7 86 86 S 13 20 29.63 1004 10 16 0.00 0.00
6:35 am 06:35 Clear 70 21.2 66 18.8 86 86 S 13 20 29.63 1003 10 16 0.00 0.00
6:55 am 06:55 Clear 70 21.3 66 18.9 86 86 S 14 22 29.63 1003 10 16 0.00 0.00
7:15 am 07:15 Clear 70 21.1 66 19 88 88 S 15 24 29.63 1004 10 16 0.00 0.00
7:35 am 07:35 Sunny 70 21.3 66 19 87 87 S 14 22 29.63 1003 10 16 0.00 0.00
7:55 am 07:55 Sunny 70 21.1 66 19.1 88 88 S 12 19 29.63 1004 10 16 0.00 0.00
8:15 am 08:15 Sunny 71 21.5 67 19.2 87 87 S 13 20 29.64 1004 10 16 0.00 0.00
8:35 am 08:35 Sunny 72 22 67 19.5 86 86 SSE 10 17 29.64 1004 10 16 0.00 0.00
8:55 am 08:55 Sunny 73 22.6 67 19.6 83 83 S 8 13 29.64 1004 10 16 0.00 0.00
9:15 am 09:15 Partly Cloudy 74 23.6 68 19.8 79 79 S 7 11 29.64 1004 10 16 0.00 0.00
9:35 am 09:35 Cloudy 76 24.3 68 19.9 77 77 SSW 7 11 29.64 1004 10 16 0.00 0.00
9:55 am 09:55 Mostly Cloudy 76 24.7 68 19.8 74 74 SSW 15 24 29.63 1003 10 16 0.00 0.00
10:15 am 10:15 Partly Cloudy 78 25.6 68 19.8 70 70 SSW 16 26 29.63 1003 10 16 0.00 0.00
10:35 am 10:35 Partly Cloudy 80 26.4 67 19.7 67 67 SSW 20 31 29.62 1003 10 16 0.00 0.00
10:55 am 10:55 Sunny 81 27.2 67 19.6 63 63 SSW 18 30 29.62 1003 10 16 0.00 0.00
11:15 am 11:15 Sunny 82 28 67 19.2 59 59 SSW 16 26 29.61 1003 10 16 0.00 0.00
11:35 am 11:35 Sunny 84 29.1 65 18.2 52 52 SSW 15 24 29.60 1002 10 16 0.00 0.00
11:55 am 11:55 Sunny 86 29.8 64 17.6 48 48 SW 21 33 29.59 1002 10 16 0.00 0.00
12:15 pm 12:15 Sunny 87 30.4 63 17.4 46 46 SW 20 31 29.59 1002 10 16 0.00 0.00
12:35 pm 12:35 Sunny 88 31 62 16.8 42 42 SSW 17 28 29.58 1002 10 16 0.00 0.00
12:55 pm 12:55 Sunny 88 31.2 61 16.1 40 40 SSW 18 30 29.58 1002 10 16 0.00 0.00
1:15 pm 13:15 Sunny 90 32.3 60 15.5 36 36 SSW 14 22 29.57 1001 10 16 0.00 0.00
1:35 pm 13:35 Sunny 90 32.3 60 15.4 36 36 SW 12 19 29.56 1001 7 11 0.00 0.00
1:55 pm 13:55 Sunny 91 33 58 14.4 32 32 SSW 15 24 29.56 1001 10 16 0.00 0.00
2:15 pm 14:15 Sunny 92 33.3 55 12.9 29 29 SW 14 22 29.55 1001 10 16 0.00 0.00
2:35 pm 14:35 Sunny 93 33.9 54 12.4 27 27 SSW 15 24 29.54 1000 10 16 0.00 0.00
2:55 pm 14:55 Sunny 94 34.5 53 11.5 25 25 SW 14 22 29.54 1000 10 16 0.00 0.00
3:15 pm 15:15 Sunny 95 34.8 52 11.3 24 24 SW 14 22 29.53 1000 10 16 0.00 0.00
3:35 pm 15:35 Sunny 95 35.2 49 9.6 21 21 SW 13 20 29.53 1000 10 16 0.00 0.00
3:55 pm 15:55 Sunny 95 35.1 49 9.6 21 21 SSW 12 19 29.54 1000 10 16 0.00 0.00
4:15 pm 16:15 Sunny 96 35.3 51 10.5 22 22 SSW 15 24 29.54 1000 10 16 0.00 0.00
4:35 pm 16:35 Sunny 88 31.2 65 18.2 46 46 NE 16 26 29.58 1002 10 16 0.00 0.00
4:55 pm 16:55 Sunny 83 28.2 64 18 54 54 N 16 26 29.61 1003 10 16 0.00 0.00
5:15 pm 17:15 Sunny 81 27 63 17.4 56 56 N 20 31 29.62 1003 10 16 0.00 0.00
5:35 pm 17:35 Sunny 78 25.6 62 16.8 58 58 N 21 33 29.63 1003 10 16 0.00 0.00
5:55 pm 17:55 Sunny 75 24.1 62 16.4 62 62 NNE 15 24 29.65 1004 10 16 0.00 0.00
6:15 pm 18:15 Sunny 73 23 61 16 65 65 NNE 16 26 29.65 1004 10 16 0.00 0.00
6:35 pm 18:35 Sunny 72 22.1 60 15.5 66 66 NNE 17 28 29.67 1005 10 16 0.00 0.00
6:55 pm 18:55 Sunny 70 20.9 59 15 69 69 NE 14 22 29.71 1006 10 16 0.00 0.00
7:15 pm 19:15 Partly Cloudy with Strong Thunderstorms 69 20.6 59 15.1 71 71 N 9 15 29.76 1008 5 8 0.04 1.02
7:35 pm 19:35 Mostly Cloudy with Light Rain 64 17.5 61 15.9 90 90 NNE 13 20 29.76 1008 10 16 0.16 4.06
7:55 pm 19:55 Mostly Cloudy 64 17.5 60 15.5 88 88 NE 13 20 29.76 1008 10 16 0.16 4.06
8:15 pm 20:15 Cloudy 63 17 60 15.3 90 90 NE 12 19 29.77 1008 10 16 0.00 0.00
8:35 pm 20:35 Cloudy 63 17.1 59 15.2 89 89 NE 10 17 29.79 1009 10 16 0.00 0.00
8:55 pm 20:55 Cloudy 62 16.9 60 15.4 91 91 NE 14 22 29.78 1008 10 16 0.00 0.00
9:15 pm 21:15 Cloudy 63 17 59 15.2 89 89 ENE 14 22 29.77 1008 10 16 0.00 0.00
9:35 pm 21:35 Cloudy with Nearby Thunderstorms 63 17.2 59 15.1 88 88 ENE 13 20 29.79 1009 10 16 0.00 0.00
9:55 pm 21:55 Cloudy 63 17 59 15.2 89 89 N 8 13 29.82 1010 10 16 0.00 0.00
10:15 pm 22:15 Cloudy 62 16.7 59 15.2 91 91 NNE 13 20 29.82 1010 10 16 0.00 0.00
10:35 pm 22:35 Cloudy 61 16 59 14.8 93 93 NE 13 20 29.82 1010 10 16 0.00 0.00
10:55 pm 22:55 Cloudy 60 15.8 59 14.9 94 94 ENE 12 19 29.82 1010 10 16 0.00 0.00
11:15 pm 23:15 Cloudy 60 15.6 58 14.7 94 94 NE 10 17 29.83 1010 10 16 0.00 0.00
11:35 pm 23:35 Cloudy 60 15.6 59 14.8 95 95 ENE 12 19 29.82 1010 10 16 0.00 0.00
11:55 pm 23:55 Cloudy 60 15.5 58 14.7 95 95 NNE 7 11 29.83 1010 10 16 0.00 0.00

Powered by AerisWeather